sat.trackr.live / text

‹ back to catalog

STARLINK-5843

NORAD 57072 · 2023-088AA

PAYLOAD ACTIVE UNKNOWN

§ Identity

Operator
Country
US
Launch date
2023-06-22
Launch site
AFWTR
Launch vehicle
Mass (kg)
RCS (m²)

Purposes: comms

External: N2YO · Heavens-Above · Gunter

§ Orbital elements

Epoch: 2026-05-25T00:43:58.108224Z

Period
94.27 min
Inclination
43.0032°
Eccentricity
0.0000834
Mean motion
15.27575233 rev/d
Perigee alt
482.5 km
Apogee alt
483.6 km
Semi-major
6,861.2 km
B*
1.0309e-5
RAAN
25.1738°
Arg perigee
259.4299°
Mean anomaly
100.6459°
Rev number
16,119

§ Raw data

STARLINK-58431 57072U 23088AA  26145.03053366  .00000022  00000+0  10309-4 0  99962 57072  43.0032  25.1738 0000834 259.4299 100.6459 15.27575233161199

JSON: /api/v1/satellites/57072 · /tle

For live sub-satellite position, see the globe view (requires WebGL).

§ Visibility from observer

Set your observer location to see the next 7 days of passes ≥ 10°. The values pass through the URL so the page stays shareable.

No JS? Fill the form by hand. The geolocation button needs JavaScript.